Location: Blairvadach
(56.2780°N, 6.9720°W)
Time: 16:22:49
(UTC+00:00)

ISS - Pass Details

Date: 28 October 2019
Orbit: 412 x 421 km, 51.6° (Epoch: 15 November)

Event Time Altitude Azimuth Distance (km) Brightness Sun altitude
Exits shadow 06:16:01 - 224° (SW) 2,078 -0.6 -10.2°
Reaches altitude 10° 06:17:36 10° 213° (SSW) 1,506 -1.2 -10.0°
Maximum altitude 06:20:22 24° 158° (SSE) 933 -1.6 -9.6°
Drops below altitude 10° 06:23:08 10° 103° (ESE) 1,508 0.7 -9.2°
Sets 06:25:29 0° 89° (E) 2,372 2.1 -8.9°
